| time (UTC) | temp F | wind direction | speed MPH | gust MPH | rain 1hr in | rain 24hr in | rain mn in | humidity % | barometer mb |
| 20260510154512 | 64 | 27 | 8.0 | 16.0 | 0.00 | 0.00 | 0.00 | 39 | 1018.9 |
| 20260510154004 | 64 | 19 | 9.0 | 16.0 | 0.00 | 0.00 | 0.00 | 39 | 1018.9 |
| 20260510153504 | 64 | 15 | 7.0 | 14.0 | 0.00 | 0.00 | 0.00 | 39 | 1018.9 |
| 20260510153013 | 64 | 54 | 9.0 | 15.0 | 0.00 | 0.00 | 0.00 | 40 | 1019.0 |
| 20260510152504 | 63 | 26 | 5.0 | 15.0 | 0.00 | 0.00 | 0.00 | 41 | 1018.8 |
| 20260510152005 | 63 | 57 | 6.0 | 14.0 | 0.00 | 0.00 | 0.00 | 41 | 1018.9 |
| 20260510151514 | 63 | 42 | 6.0 | 13.0 | 0.00 | 0.00 | 0.00 | 44 | 1019.1 |
| 20260510151004 | 62 | 47 | 6.0 | 17.0 | 0.00 | 0.00 | 0.00 | 45 | 1019.0 |
| 20260510150508 | 62 | 32 | 8.0 | 17.0 | 0.00 | 0.00 | 0.00 | 45 | 1019.0 |
| 20260510150017 | 62 | 18 | 8.0 | 14.0 | 0.00 | 0.00 | 0.00 | 46 | 1019.2 |
| 20260510145507 | 62 | 31 | 8.0 | 14.0 | 0.00 | 0.00 | 0.00 | 46 | 1019.2 |
| 20260510145004 | 62 | 360 | 5.0 | 12.0 | 0.00 | 0.00 | 0.00 | 46 | 1019.1 |
| 20260510144516 | 61 | 9 | 4.0 | 15.0 | 0.00 | 0.00 | 0.00 | 46 | 1019.1 |
| 20260510144004 | 61 | 14 | 4.0 | 15.0 | 0.00 | 0.00 | 0.00 | 46 | 1019.1 |
| 20260510143508 | 61 | 360 | 1.0 | 11.0 | 0.00 | 0.00 | 0.00 | 48 | 1019.2 |
| 20260510143030 | 61 | 28 | 4.0 | 10.0 | 0.00 | 0.00 | 0.00 | 49 | 1019.3 |
| 20260510142506 | 60 | 337 | 4.0 | 11.0 | 0.00 | 0.00 | 0.00 | 49 | 1019.1 |
| 20260510142007 | 60 | 9 | 5.0 | 10.0 | 0.00 | 0.00 | 0.00 | 49 | 1019.2 |
| 20260510141515 | 60 | 20 | 5.0 | 11.0 | 0.00 | 0.00 | 0.00 | 50 | 1019.2 |
| 20260510141007 | 60 | 325 | 5.0 | 12.0 | 0.00 | 0.00 | 0.00 | 49 | 1019.3 |
| 20260510140506 | 60 | 12 | 6.0 | 12.0 | 0.00 | 0.00 | 0.00 | 49 | 1019.1 |
| 20260510140005 | 60 | 351 | 5.0 | 11.0 | 0.00 | 0.00 | 0.00 | 50 | 1019.1 |
| 20260510135502 | 60 | 30 | 4.0 | 11.0 | 0.00 | 0.00 | 0.00 | 49 | 1018.8 |
| 20260510135002 | 60 | 23 | 4.0 | 11.0 | 0.00 | 0.00 | 0.00 | 50 | 1018.7 |
| 20260510134503 | 60 | 10 | 3.0 | 11.0 | 0.00 | 0.00 | 0.00 | 50 | 1018.6 |
| 20260510134002 | 60 | 13 | 4.0 | 12.0 | 0.00 | 0.00 | 0.00 | 50 | 1018.4 |
| 20260510133503 | 60 | 30 | 3.0 | 12.0 | 0.00 | 0.00 | 0.00 | 51 | 1018.2 |
| 20260510133003 | 60 | 30 | 4.0 | 15.0 | 0.00 | 0.00 | 0.00 | 51 | 1018.2 |
| 20260510132503 | 60 | 62 | 5.0 | 15.0 | 0.00 | 0.00 | 0.00 | 52 | 1018.0 |
| 20260510132016 | 60 | 24 | 6.0 | 15.0 | 0.00 | 0.00 | 0.00 | 52 | 1017.9 |
| 20260510131504 | 60 | 26 | 8.0 | 16.0 | 0.00 | 0.00 | 0.00 | 53 | 1017.7 |
| 20260510131003 | 60 | 53 | 6.0 | 16.0 | 0.00 | 0.00 | 0.00 | 53 | 1017.6 |
| 20260510130503 | 60 | 29 | 8.0 | 15.0 | 0.00 | 0.00 | 0.00 | 52 | 1017.6 |
| 20260510130009 | 60 | 36 | 5.0 | 15.0 | 0.00 | 0.00 | 0.00 | 52 | 1017.4 |
| 20260510125504 | 60 | 24 | 8.0 | 14.0 | 0.00 | 0.00 | 0.00 | 52 | 1017.5 |
| 20260510125006 | 60 | 20 | 5.0 | 13.0 | 0.00 | 0.00 | 0.00 | 52 | 1017.5 |
| 20260510124503 | 60 | 26 | 6.0 | 14.0 | 0.00 | 0.00 | 0.00 | 53 | 1017.3 |
| 20260510124003 | 60 | 52 | 5.0 | 13.0 | 0.00 | 0.00 | 0.00 | 53 | 1017.1 |
| 20260510123502 | 60 | 15 | 2.0 | 13.0 | 0.00 | 0.00 | 0.00 | 53 | 1017.0 |
| 20260510123004 | 60 | 73 | 2.0 | 9.0 | 0.00 | 0.00 | 0.00 | 53 | 1016.6 |
| 20260510122502 | 60 | 40 | 2.0 | 6.0 | 0.00 | 0.00 | 0.00 | 55 | 1016.4 |
| 20260510122002 | 60 | 27 | 2.0 | 7.0 | 0.00 | 0.00 | 0.00 | 56 | 1016.3 |
| 20260510121504 | 59 | 70 | 3.0 | 10.0 | 0.00 | 0.00 | 0.00 | 59 | 1016.1 |
| 20260510121003 | 59 | 61 | 3.0 | 10.0 | 0.00 | 0.00 | 0.00 | 60 | 1016.0 |
| 20260510120504 | 59 | 40 | 3.0 | 10.0 | 0.00 | 0.00 | 0.00 | 61 | 1016.2 |
| 20260510120010 | 59 | 36 | 4.0 | 9.0 | 0.00 | 0.00 | 0.00 | 62 | 1016.1 |
| 20260510115502 | 59 | 16 | 3.0 | 9.0 | 0.00 | 0.00 | 0.00 | 63 | 1016.2 |
| 20260510115004 | 59 | 27 | 4.0 | 11.0 | 0.00 | 0.00 | 0.00 | 64 | 1016.1 |
| 20260510114512 | 59 | 39 | 4.0 | 15.0 | 0.00 | 0.01 | 0.00 | 64 | 1016.0 |
| 20260510114006 | 59 | 25 | 4.0 | 15.0 | 0.00 | 0.01 | 0.00 | 64 | 1015.9 |
| 20260510113505 | 59 | 9 | 4.0 | 10.0 | 0.00 | 0.01 | 0.00 | 64 | 1016.0 |
| 20260510113005 | 59 | 12 | 4.0 | 11.0 | 0.00 | 0.01 | 0.00 | 64 | 1015.9 |
| 20260510112511 | 59 | 351 | 5.0 | 13.0 | 0.00 | 0.01 | 0.00 | 64 | 1015.7 |
| 20260510112003 | 59 | 17 | 5.0 | 13.0 | 0.00 | 0.01 | 0.00 | 64 | 1015.7 |
| 20260510111505 | 60 | 26 | 4.0 | 10.0 | 0.00 | 0.01 | 0.00 | 65 | 1015.7 |
| 20260510111004 | 60 | 40 | 5.0 | 10.0 | 0.00 | 0.01 | 0.00 | 65 | 1015.6 |
| 20260510110503 | 60 | 10 | 5.0 | 12.0 | 0.00 | 0.01 | 0.00 | 67 | 1015.4 |
| 20260510110006 | 60 | 340 | 5.0 | 12.0 | 0.00 | 0.01 | 0.00 | 68 | 1015.4 |
| 20260510105504 | 60 | 19 | 5.0 | 11.0 | 0.00 | 0.01 | 0.00 | 68 | 1015.4 |
| 20260510105002 | 60 | 17 | 4.0 | 11.0 | 0.00 | 0.01 | 0.00 | 69 | 1015.2 |
| 20260510104509 | 60 | 32 | 4.0 | 10.0 | 0.00 | 0.01 | 0.00 | 69 | 1015.2 |
| 20260510104002 | 60 | 9 | 3.0 | 10.0 | 0.00 | 0.01 | 0.00 | 68 | 1015.3 |
| 20260510103502 | 60 | 9 | 3.0 | 10.0 | 0.00 | 0.01 | 0.00 | 68 | 1015.3 |
| 20260510103020 | 60 | 20 | 6.0 | 10.0 | 0.00 | 0.01 | 0.00 | 68 | 1015.2 |
| 20260510102509 | 60 | 26 | 4.0 | 9.0 | 0.00 | 0.01 | 0.00 | 68 | 1015.1 |
| 20260510102006 | 61 | 336 | 4.0 | 10.0 | 0.00 | 0.01 | 0.00 | 67 | 1014.8 |
| 20260510101504 | 61 | 33 | 3.0 | 10.0 | 0.00 | 0.01 | 0.00 | 67 | 1014.8 |
| 20260510101002 | 61 | 15 | 5.0 | 9.0 | 0.00 | 0.01 | 0.00 | 66 | 1014.9 |
| 20260510100505 | 61 | 22 | 4.0 | 8.0 | 0.00 | 0.01 | 0.00 | 66 | 1014.8 |
| 20260510100004 | 61 | 15 | 4.0 | 7.0 | 0.00 | 0.01 | 0.00 | 65 | 1014.6 |
| 20260510095503 | 62 | 360 | 3.0 | 7.0 | 0.00 | 0.01 | 0.00 | 65 | 1014.4 |
| 20260510095002 | 62 | 40 | 2.0 | 7.0 | 0.00 | 0.01 | 0.00 | 65 | 1014.3 |
| 20260510094506 | 62 | 360 | 2.0 | 5.0 | 0.00 | 0.01 | 0.00 | 65 | 1014.4 |
| 20260510094004 | 62 | 15 | 1.0 | 9.0 | 0.00 | 0.01 | 0.00 | 65 | 1014.4 |
| 20260510093504 | 62 | 65 | 2.0 | 9.0 | 0.00 | 0.01 | 0.00 | 65 | 1014.3 |
| 20260510093012 | 62 | 46 | 2.0 | 6.0 | 0.00 | 0.01 | 0.00 | 65 | 1014.1 |
| 20260510092503 | 62 | 360 | 3.0 | 6.0 | 0.00 | 0.01 | 0.00 | 65 | 1014.1 |
| 20260510092006 | 62 | 31 | 1.0 | 10.0 | 0.00 | 0.01 | 0.00 | 66 | 1014.1 |
| 20260510091521 | 62 | 53 | 4.0 | 10.0 | 0.00 | 0.01 | 0.00 | 65 | 1014.0 |
| 20260510091007 | 63 | 21 | 3.0 | 10.0 | 0.00 | 0.01 | 0.00 | 66 | 1014.1 |
| 20260510090507 | 63 | 10 | 4.0 | 10.0 | 0.00 | 0.01 | 0.00 | 65 | 1014.2 |
| 20260510090025 | 63 | 17 | 2.0 | 10.0 | 0.00 | 0.01 | 0.00 | 65 | 1014.1 |
| 20260510085505 | 63 | 9 | 3.0 | 10.0 | 0.00 | 0.02 | 0.00 | 65 | 1013.9 |
| 20260510085003 | 63 | 17 | 3.0 | 10.0 | 0.00 | 0.02 | 0.00 | 65 | 1013.7 |
| 20260510084504 | 63 | 31 | 3.0 | 10.0 | 0.00 | 0.02 | 0.00 | 66 | 1013.5 |
| 20260510084003 | 63 | 59 | 5.0 | 10.0 | 0.00 | 0.02 | 0.00 | 65 | 1013.5 |
| 20260510083504 | 63 | 351 | 4.0 | 9.0 | 0.00 | 0.02 | 0.00 | 65 | 1013.4 |
| 20260510083018 | 64 | 10 | 3.0 | 8.0 | 0.00 | 0.02 | 0.00 | 65 | 1013.2 |
| 20260510082505 | 64 | 36 | 3.0 | 6.0 | 0.00 | 0.02 | 0.00 | 64 | 1013.0 |
| 20260510082004 | 64 | 35 | 2.0 | 6.0 | 0.00 | 0.02 | 0.00 | 64 | 1012.9 |
| 20260510081516 | 64 | 329 | 1.0 | 6.0 | 0.00 | 0.02 | 0.00 | 64 | 1012.9 |
| 20260510081009 | 64 | 44 | 2.0 | 5.0 | 0.00 | 0.02 | 0.00 | 64 | 1012.9 |
| 20260510080507 | 65 | 57 | 2.0 | 5.0 | 0.00 | 0.02 | 0.00 | 63 | 1012.6 |
| 20260510080027 | 65 | 26 | 2.0 | 8.0 | 0.00 | 0.02 | 0.00 | 63 | 1012.7 |
| 20260510075506 | 65 | 23 | 3.0 | 8.0 | 0.00 | 0.02 | 0.00 | 62 | 1012.7 |
| 20260510075009 | 65 | 19 | 3.0 | 8.0 | 0.00 | 0.02 | 0.00 | 62 | 1012.7 |
| 20260510074526 | 65 | 22 | 3.0 | 8.0 | 0.00 | 0.02 | 0.00 | 62 | 1012.7 |
| 20260510074002 | 66 | 17 | 2.0 | 8.0 | 0.00 | 0.02 | 0.00 | 62 | 1012.7 |
| 20260510073503 | 66 | 43 | 3.0 | 7.0 | 0.00 | 0.02 | 0.00 | 61 | 1012.7 |
| 20260510073009 | 66 | 20 | 2.0 | 7.0 | 0.00 | 0.02 | 0.00 | 61 | 1012.7 |
| 20260510072507 | 66 | 37 | 2.0 | 7.0 | 0.00 | 0.02 | 0.00 | 57 | 1012.7 |
| 20260510072004 | 67 | 360 | 3.0 | 4.0 | 0.00 | 0.02 | 0.00 | 57 | 1012.7 |
| 20260510071513 | 67 | 360 | 2.0 | 4.0 | 0.00 | 0.02 | 0.00 | 56 | 1012.7 |
| 20260510071003 | 68 | 352 | 2.0 | 3.0 | 0.00 | 0.02 | 0.00 | 55 | 1012.7 |
| 20260510070503 | 68 | 28 | 1.0 | 3.0 | 0.00 | 0.02 | 0.00 | 54 | 1012.6 |
| 20260510070029 | 68 | 13 | 0.0 | 2.0 | 0.00 | 0.02 | 0.00 | 53 | 1012.5 |
| 20260510065506 | 69 | 34 | 0.0 | 2.0 | 0.00 | 0.02 | 0.00 | 53 | 1012.4 |
| 20260510065014 | 69 | 29 | 0.0 | 2.0 | 0.00 | 0.02 | 0.00 | 53 | 1012.5 |
| 20260510064528 | 69 | 17 | 0.0 | 2.0 | 0.00 | 0.02 | 0.00 | 52 | 1012.4 |
| 20260510064006 | 69 | 88 | 0.0 | 2.0 | 0.00 | 0.02 | 0.00 | 52 | 1012.2 |
| 20260510063513 | 69 | 93 | 0.0 | 2.0 | 0.00 | 0.02 | 0.00 | 52 | 1012.1 |
| 20260510063029 | 69 | 22 | 0.0 | 2.0 | 0.00 | 0.02 | 0.00 | 51 | 1012.1 |
| 20260510062505 | 69 | 27 | 0.0 | 2.0 | 0.00 | 0.02 | 0.00 | 51 | 1012.2 |
| 20260510062007 | 70 | 50 | 0.0 | 2.0 | 0.00 | 0.02 | 0.00 | 51 | 1012.1 |
| 20260510061511 | 70 | 24 | 0.0 | 2.0 | 0.00 | 0.02 | 0.00 | 50 | 1012.1 |
| 20260510061004 | 69 | 26 | 0.0 | 2.0 | 0.00 | 0.02 | 0.00 | 50 | 1012.0 |
| 20260510060504 | 69 | 32 | 0.0 | 2.0 | 0.00 | 0.02 | 0.00 | 50 | 1012.0 |
| 20260510060017 | 69 | 26 | 0.0 | 4.0 | 0.00 | 0.02 | 0.00 | 51 | 1012.0 |
| 20260510055505 | 69 | 39 | 0.0 | 4.0 | 0.00 | 0.02 | 0.00 | 53 | 1012.0 |
| 20260510055011 | 69 | 9 | 0.0 | 4.0 | 0.00 | 0.02 | 0.00 | 54 | 1012.1 |
| 20260510054523 | 69 | 327 | 1.0 | 2.0 | 0.00 | 0.02 | 0.00 | 55 | 1012.1 |
| 20260510054011 | 69 | 48 | 0.0 | 0.0 | 0.00 | 0.02 | 0.00 | 52 | 1012.1 |
| 20260510053511 | 70 | 48 | 0.0 | 0.0 | 0.00 | 0.02 | 0.00 | 52 | 1011.9 |
| 20260510053027 | 70 | 48 | 0.0 | 2.0 | 0.00 | 0.02 | 0.00 | 51 | 1011.8 |
| 20260510052511 | 70 | 48 | 0.0 | 2.0 | 0.00 | 0.02 | 0.00 | 52 | 1011.9 |
| 20260510052015 | 71 | 48 | 0.0 | 2.0 | 0.00 | 0.02 | 0.00 | 50 | 1011.8 |
| 20260510051526 | 71 | 48 | 0.0 | 2.0 | 0.00 | 0.02 | 0.00 | 49 | 1011.7 |
| 20260510051003 | 71 | 48 | 0.0 | 2.0 | 0.00 | 0.02 | 0.00 | 48 | 1011.7 |
| 20260510050503 | 71 | 40 | 0.0 | 2.0 | 0.00 | 0.02 | 0.00 | 48 | 1011.8 |
| 20260510050014 | 71 | 40 | 0.0 | 2.0 | 0.00 | 0.02 | 0.00 | 49 | 1011.8 |
| 20260510045506 | 71 | 40 | 0.0 | 2.0 | 0.00 | 0.02 | 0.02 | 49 | 1011.8 |
| 20260510045007 | 71 | 40 | 0.0 | 2.0 | 0.00 | 0.02 | 0.02 | 49 | 1011.9 |
| 20260510044530 | 71 | 40 | 0.0 | 2.0 | 0.00 | 0.02 | 0.02 | 48 | 1012.0 |
| 20260510044006 | 72 | 40 | 0.0 | 2.0 | 0.00 | 0.02 | 0.02 | 48 | 1012.0 |
| 20260510043507 | 72 | 40 | 0.0 | 2.0 | 0.00 | 0.02 | 0.02 | 48 | 1012.1 |
| 20260510043026 | 72 | 22 | 0.0 | 3.0 | 0.00 | 0.02 | 0.02 | 47 | 1012.0 |
| 20260510042508 | 72 | 9 | 1.0 | 3.0 | 0.00 | 0.02 | 0.02 | 47 | 1012.1 |
| 20260510042013 | 72 | 5 | 0.0 | 3.0 | 0.00 | 0.02 | 0.02 | 46 | 1012.1 |
| 20260510041527 | 72 | 37 | 0.0 | 5.0 | 0.00 | 0.02 | 0.02 | 46 | 1012.0 |
| 20260510041004 | 72 | 34 | 2.0 | 6.0 | 0.00 | 0.02 | 0.02 | 46 | 1012.0 |
| 20260510040502 | 72 | 32 | 2.0 | 6.0 | 0.00 | 0.02 | 0.02 | 47 | 1012.1 |
| 20260510040012 | 71 | 346 | 2.0 | 0.0 | 0.00 | 0.02 | 0.02 | 1012.1 | |
| 20260510035510 | 0 | 0.0 | 0.0 | 0.00 | 0.02 | 0.02 | 1012.3 | ||
| 20260510035011 | 0 | 0.0 | 0.0 | 0.00 | 0.02 | 0.02 | 1012.2 | ||
| 20260510034530 | 0 | 0.0 | 0.0 | 0.00 | 0.02 | 0.02 | 1012.1 | ||
| 20260510034008 | 0 | 0.0 | 0.0 | 0.00 | 0.02 | 0.02 | 1012.1 | ||
| 20260510033514 | 0 | 0.0 | 0.0 | 0.00 | 0.02 | 0.02 | 1012.0 | ||
| 20260510033028 | 0 | 0.0 | 0.0 | 0.00 | 0.02 | 0.02 | 1011.9 | ||
| 20260510032510 | 0 | 0.0 | 0.0 | 0.00 | 0.02 | 0.02 | 1011.4 | ||
| 20260510032019 | 0 | 0.0 | 0.0 | 0.00 | 0.02 | 0.02 | 1011.3 | ||
| 20260510031531 | 0 | 0.0 | 0.0 | 0.00 | 0.02 | 0.02 | 1011.2 | ||
| 20260510031013 | 0 | 0.0 | 0.0 | 0.00 | 0.02 | 0.02 | 1011.0 | ||
| 20260510030513 | 0 | 0.0 | 0.0 | 0.00 | 0.02 | 0.02 | 1010.6 | ||
| 20260510030031 | 0 | 0.0 | 0.0 | 0.00 | 0.02 | 0.02 | 1010.3 | ||
| 20260510025510 | 72 | 1.0 | 3.0 | 0.00 | 0.02 | 0.02 | 54 | 1010.2 | |
| 20260510025013 | 72 | 191 | 1.0 | 3.0 | 0.00 | 0.02 | 0.02 | 54 | 1010.2 |
| 20260510024517 | 73 | 207 | 1.0 | 3.0 | 0.00 | 0.02 | 0.02 | 54 | 1010.1 |
| 20260510024010 | 73 | 243 | 0.0 | 3.0 | 0.00 | 0.02 | 0.02 | 54 | 1010.2 |
| 20260510023506 | 73 | 237 | 1.0 | 3.0 | 0.00 | 0.02 | 0.02 | 54 | 1010.1 |
| 20260510023020 | 73 | 209 | 1.0 | 3.0 | 0.00 | 0.02 | 0.02 | 54 | 1010.0 |
| 20260510022510 | 73 | 220 | 0.0 | 2.0 | 0.00 | 0.02 | 0.02 | 54 | 1009.8 |
| 20260510022013 | 73 | 230 | 0.0 | 2.0 | 0.00 | 0.02 | 0.02 | 54 | 1009.6 |
| 20260510021532 | 74 | 198 | 1.0 | 2.0 | 0.00 | 0.02 | 0.02 | 53 | 1009.5 |
| 20260510021010 | 74 | 209 | 0.0 | 2.0 | 0.00 | 0.02 | 0.02 | 53 | 1009.4 |
| 20260510020513 | 74 | 213 | 0.0 | 2.0 | 0.00 | 0.02 | 0.02 | 52 | 1009.3 |
| 20260510020028 | 74 | 192 | 0.0 | 2.0 | 0.00 | 0.02 | 0.02 | 52 | 1009.1 |
| 20260510015507 | 74 | 205 | 0.0 | 4.0 | 0.00 | 0.02 | 0.02 | 51 | 1009.0 |
| 20260510015018 | 75 | 184 | 1.0 | 4.0 | 0.00 | 0.02 | 0.02 | 51 | 1008.8 |
| 20260510014511 | 75 | 192 | 1.0 | 3.0 | 0.00 | 0.02 | 0.02 | 50 | 1008.8 |
| 20260510014003 | 75 | 209 | 1.0 | 3.0 | 0.00 | 0.02 | 0.02 | 49 | 1008.7 |
| 20260510013505 | 76 | 196 | 0.0 | 2.0 | 0.00 | 0.02 | 0.02 | 48 | 1008.6 |
| 20260510013027 | 76 | 198 | 1.0 | 5.0 | 0.00 | 0.02 | 0.02 | 48 | 1008.5 |
| 20260510012506 | 76 | 184 | 1.0 | 5.0 | 0.00 | 0.02 | 0.02 | 47 | 1008.3 |
| 20260510012012 | 77 | 205 | 2.0 | 4.0 | 0.00 | 0.02 | 0.02 | 46 | 1008.3 |
| 20260510011534 | 77 | 210 | 1.0 | 4.0 | 0.00 | 0.02 | 0.02 | 46 | 1008.3 |
| 20260510011008 | 77 | 194 | 1.0 | 4.0 | 0.00 | 0.02 | 0.02 | 45 | 1008.2 |
| 20260510010502 | 78 | 188 | 1.0 | 5.0 | 0.00 | 0.03 | 0.02 | 44 | 1008.0 |
| 20260510010026 | 78 | 204 | 1.0 | 6.0 | 0.00 | 0.07 | 0.02 | 43 | 1007.9 |
| 20260510005503 | 79 | 225 | 3.0 | 6.0 | 0.00 | 0.08 | 0.02 | 43 | 1007.9 |
| 20260510005003 | 79 | 175 | 2.0 | 6.0 | 0.00 | 0.08 | 0.02 | 42 | 1007.8 |
| 20260510004513 | 79 | 207 | 3.0 | 6.0 | 0.00 | 0.08 | 0.02 | 41 | 1007.8 |
| 20260510004005 | 80 | 185 | 1.0 | 3.0 | 0.00 | 0.08 | 0.02 | 40 | 1007.8 |
| 20260510003511 | 80 | 207 | 1.0 | 4.0 | 0.00 | 0.08 | 0.02 | 39 | 1007.8 |
| 20260510003013 | 80 | 211 | 2.0 | 4.0 | 0.00 | 0.08 | 0.02 | 39 | 1007.8 |
| 20260510002507 | 81 | 199 | 2.0 | 5.0 | 0.00 | 0.08 | 0.02 | 38 | 1007.7 |
| 20260510002010 | 81 | 196 | 3.0 | 5.0 | 0.00 | 0.08 | 0.02 | 38 | 1007.8 |
| 20260510001529 | 81 | 198 | 2.0 | 5.0 | 0.00 | 0.08 | 0.02 | 37 | 1007.8 |
| 20260510001007 | 81 | 245 | 1.0 | 6.0 | 0.00 | 0.08 | 0.02 | 36 | 1007.8 |
| 20260510000513 | 81 | 180 | 3.0 | 7.0 | 0.00 | 0.08 | 0.02 | 35 | 1007.8 |
| 20260510000051 | 82 | 152 | 3.0 | 7.0 | 0.00 | 0.09 | 0.02 | 35 | 1007.9 |
| 20260509235515 | 82 | 192 | 3.0 | 6.0 | 0.00 | 0.12 | 0.02 | 34 | 1007.9 |
| 20260509235003 | 82 | 186 | 4.0 | 7.0 | 0.00 | 0.12 | 0.02 | 33 | 1007.9 |
| 20260509234509 | 82 | 220 | 3.0 | 7.0 | 0.00 | 0.12 | 0.02 | 34 | 1007.8 |
| 20260509234006 | 82 | 194 | 4.0 | 10.0 | 0.00 | 0.12 | 0.02 | 33 | 1007.7 |
| 20260509233515 | 82 | 229 | 3.0 | 10.0 | 0.00 | 0.12 | 0.02 | 33 | 1007.7 |
| 20260509233014 | 82 | 220 | 5.0 | 9.0 | 0.00 | 0.12 | 0.02 | 33 | 1007.9 |
| 20260509232508 | 82 | 142 | 3.0 | 11.0 | 0.00 | 0.12 | 0.02 | 33 | 1007.7 |
| 20260509232011 | 82 | 173 | 4.0 | 10.0 | 0.00 | 0.12 | 0.02 | 32 | 1007.7 |
| 20260509231530 | 83 | 175 | 5.0 | 9.0 | 0.00 | 0.12 | 0.02 | 33 | 1007.9 |
| 20260509231006 | 83 | 211 | 4.0 | 10.0 | 0.00 | 0.12 | 0.02 | 33 | 1007.8 |
| 20260509230516 | 83 | 207 | 5.0 | 10.0 | 0.00 | 0.12 | 0.02 | 32 | 1007.8 |
| 20260509230028 | 83 | 178 | 4.0 | 9.0 | 0.00 | 0.12 | 0.02 | 31 | 1007.7 |
| 20260509225512 | 84 | 224 | 4.0 | 8.0 | 0.00 | 0.12 | 0.02 | 30 | 1007.7 |
| 20260509225016 | 84 | 219 | 5.0 | 8.0 | 0.00 | 0.12 | 0.02 | 30 | 1007.7 |
| 20260509224527 | 85 | 211 | 2.0 | 5.0 | 0.00 | 0.12 | 0.02 | 29 | 1007.7 |
| 20260509224007 | 84 | 212 | 2.0 | 5.0 | 0.00 | 0.12 | 0.02 | 28 | 1007.7 |
| 20260509223512 | 84 | 163 | 2.0 | 5.0 | 0.00 | 0.12 | 0.02 | 26 | 1007.7 |
| 20260509223015 | 84 | 265 | 2.0 | 8.0 | 0.00 | 0.12 | 0.02 | 26 | 1007.6 |
| 20260509222507 | 84 | 296 | 3.0 | 8.0 | 0.00 | 0.12 | 0.02 | 27 | 1007.7 |
| 20260509222003 | 84 | 261 | 2.0 | 8.0 | 0.00 | 0.12 | 0.02 | 26 | 1007.6 |
| 20260509221529 | 84 | 310 | 3.0 | 11.0 | 0.00 | 0.12 | 0.02 | 25 | 1007.6 |
| 20260509221007 | 85 | 298 | 2.0 | 11.0 | 0.00 | 0.12 | 0.02 | 26 | 1007.6 |
| 20260509220508 | 85 | 333 | 2.0 | 6.0 | 0.00 | 0.12 | 0.02 | 26 | 1007.6 |
| 20260509220025 | 84 | 269 | 2.0 | 10.0 | 0.00 | 0.12 | 0.02 | 26 | 1007.5 |
| 20260509215511 | 84 | 282 | 2.0 | 10.0 | 0.00 | 0.12 | 0.02 | 25 | 1007.5 |
| 20260509215013 | 84 | 265 | 7.0 | 10.0 | 0.00 | 0.12 | 0.02 | 25 | 1007.6 |
| 20260509214530 | 84 | 274 | 4.0 | 10.0 | 0.00 | 0.12 | 0.02 | 25 | 1007.5 |
| 20260509214009 | 84 | 311 | 3.0 | 10.0 | 0.00 | 0.12 | 0.02 | 24 | 1007.5 |
| 20260509213508 | 84 | 275 | 6.0 | 10.0 | 0.00 | 0.12 | 0.02 | 24 | 1007.6 |
| 20260509213028 | 84 | 238 | 4.0 | 10.0 | 0.00 | 0.12 | 0.02 | 25 | 1007.6 |
| 20260509212510 | 84 | 223 | 3.0 | 10.0 | 0.00 | 0.12 | 0.02 | 25 | 1007.7 |
| 20260509212015 | 84 | 262 | 2.0 | 11.0 | 0.00 | 0.12 | 0.02 | 24 | 1007.6 |
| 20260509211518 | 84 | 230 | 4.0 | 11.0 | 0.00 | 0.12 | 0.02 | 24 | 1007.7 |
| 20260509211004 | 84 | 252 | 6.0 | 10.0 | 0.00 | 0.12 | 0.02 | 25 | 1007.7 |
| 20260509210511 | 85 | 315 | 4.0 | 9.0 | 0.00 | 0.12 | 0.02 | 25 | 1007.8 |
| 20260509210026 | 84 | 216 | 3.0 | 8.0 | 0.00 | 0.12 | 0.02 | 25 | 1007.8 |
| 20260509205511 | 84 | 225 | 3.0 | 0.0 | 0.00 | 0.12 | 0.02 | 25 | 1007.9 |
| 20260509205011 | 0 | 0.0 | 0.0 | 0.00 | 0.12 | 0.02 | 1007.9 | ||
| 20260509204539 | 0 | 0.0 | 0.0 | 0.00 | 0.12 | 0.02 | 1008.0 | ||
| 20260509204016 | 0 | 0.0 | 0.0 | 0.00 | 0.12 | 0.02 | 1008.1 | ||
| 20260509203513 | 0 | 0.0 | 0.0 | 0.00 | 0.12 | 0.02 | 1008.2 | ||
| 20260509203032 | 0 | 0.0 | 0.0 | 0.00 | 0.12 | 0.02 | 1008.2 | ||
| 20260509202509 | 0 | 0.0 | 0.0 | 0.00 | 0.12 | 0.02 | 1008.3 | ||
| 20260509202014 | 0 | 0.0 | 0.0 | 0.00 | 0.12 | 0.02 | 1008.3 | ||
| 20260509201531 | 0 | 0.0 | 0.0 | 0.00 | 0.12 | 0.02 | 1008.5 | ||
| 20260509201010 | 83 | 0.0 | 0.0 | 0.00 | 0.12 | 0.02 | 28 | 1008.5 | |
| 20260509200516 | 83 | 4.0 | 14.0 | 0.00 | 0.12 | 0.02 | 28 | 1008.6 | |
| 20260509200016 | 83 | 290 | 2.0 | 14.0 | 0.00 | 0.12 | 0.02 | 27 | 1008.7 |
| 20260509195511 | 83 | 218 | 5.0 | 12.0 | 0.00 | 0.12 | 0.02 | 27 | 1008.7 |
| 20260509195005 | 83 | 272 | 4.0 | 11.0 | 0.00 | 0.12 | 0.02 | 27 | 1008.8 |
| 20260509194526 | 83 | 232 | 3.0 | 10.0 | 0.00 | 0.12 | 0.02 | 27 | 1008.8 |
| 20260509194008 | 82 | 236 | 2.0 | 10.0 | 0.00 | 0.12 | 0.02 | 27 | 1008.8 |
| 20260509193510 | 83 | 244 | 6.0 | 10.0 | 0.00 | 0.12 | 0.02 | 27 | 1008.8 |
| 20260509193031 | 82 | 301 | 6.0 | 13.0 | 0.00 | 0.12 | 0.02 | 28 | 1008.8 |
| 20260509192506 | 82 | 331 | 5.0 | 13.0 | 0.00 | 0.12 | 0.02 | 27 | 1008.8 |
| 20260509192012 | 82 | 244 | 6.0 | 13.0 | 0.00 | 0.12 | 0.02 | 28 | 1008.8 |
| 20260509191530 | 82 | 309 | 8.0 | 13.0 | 0.00 | 0.12 | 0.02 | 28 | 1008.8 |
| 20260509191003 | 82 | 269 | 5.0 | 12.0 | 0.00 | 0.12 | 0.02 | 28 | 1008.8 |
| 20260509190503 | 82 | 267 | 6.0 | 12.0 | 0.00 | 0.12 | 0.02 | 27 | 1008.8 |
| 20260509190027 | 82 | 242 | 3.0 | 10.0 | 0.00 | 0.12 | 0.02 | 30 | 1008.8 |
| 20260509185502 | 82 | 348 | 5.0 | 15.0 | 0.00 | 0.12 | 0.02 | 29 | 1008.8 |
| 20260509185016 | 81 | 294 | 5.0 | 15.0 | 0.00 | 0.12 | 0.02 | 29 | 1008.9 |
| 20260509184504 | 81 | 312 | 6.0 | 15.0 | 0.00 | 0.12 | 0.02 | 30 | 1009.0 |
| 20260509184010 | 81 | 260 | 5.0 | 13.0 | 0.00 | 0.12 | 0.02 | 29 | 1009.0 |
| 20260509183503 | 81 | 304 | 5.0 | 13.0 | 0.00 | 0.12 | 0.02 | 32 | 1009.0 |
| 20260509183010 | 80 | 327 | 4.0 | 13.0 | 0.00 | 0.12 | 0.02 | 32 | 1009.1 |
| 20260509182504 | 80 | 298 | 6.0 | 11.0 | 0.00 | 0.12 | 0.02 | 33 | 1009.1 |
| 20260509182006 | 80 | 235 | 5.0 | 12.0 | 0.00 | 0.12 | 0.02 | 34 | 1009.1 |
| 20260509181507 | 80 | 265 | 6.0 | 12.0 | 0.00 | 0.12 | 0.02 | 33 | 1009.0 |
| 20260509181007 | 80 | 317 | 5.0 | 11.0 | 0.00 | 0.12 | 0.02 | 33 | 1009.1 |
| 20260509180507 | 80 | 267 | 4.0 | 10.0 | 0.00 | 0.12 | 0.02 | 33 | 1009.3 |
| 20260509180015 | 80 | 263 | 7.0 | 10.0 | 0.00 | 0.12 | 0.02 | 32 | 1009.2 |
| 20260509175510 | 80 | 260 | 3.0 | 9.0 | 0.00 | 0.12 | 0.02 | 36 | 1009.2 |
| 20260509175012 | 79 | 292 | 5.0 | 9.0 | 0.00 | 0.12 | 0.02 | 35 | 1009.3 |
| 20260509174503 | 79 | 250 | 5.0 | 13.0 | 0.00 | 0.12 | 0.02 | 37 | 1009.4 |
| 20260509174011 | 79 | 247 | 6.0 | 13.0 | 0.00 | 0.12 | 0.02 | 36 | 1009.5 |
| 20260509173502 | 79 | 310 | 5.0 | 11.0 | 0.00 | 0.12 | 0.02 | 39 | 1009.4 |
| 20260509173032 | 79 | 254 | 6.0 | 11.0 | 0.00 | 0.12 | 0.02 | 37 | 1009.5 |
| 20260509172510 | 79 | 265 | 6.0 | 12.0 | 0.00 | 0.12 | 0.02 | 38 | 1009.5 |
| 20260509172004 | 79 | 296 | 5.0 | 12.0 | 0.00 | 0.12 | 0.02 | 39 | 1009.6 |
| 20260509171535 | 78 | 258 | 4.0 | 12.0 | 0.00 | 0.12 | 0.02 | 39 | 1009.6 |
| 20260509171003 | 78 | 301 | 2.0 | 11.0 | 0.00 | 0.12 | 0.02 | 38 | 1009.7 |
| 20260509170506 | 78 | 272 | 6.0 | 11.0 | 0.00 | 0.12 | 0.02 | 40 | 1009.8 |
| 20260509170012 | 78 | 260 | 5.0 | 11.0 | 0.00 | 0.12 | 0.02 | 41 | 1009.7 |
| 20260509165508 | 77 | 244 | 5.0 | 11.0 | 0.00 | 0.12 | 0.02 | 42 | 1009.6 |
| 20260509165005 | 77 | 253 | 4.0 | 11.0 | 0.00 | 0.12 | 0.02 | 43 | 1009.7 |
| 20260509164517 | 77 | 260 | 5.0 | 9.0 | 0.00 | 0.12 | 0.02 | 46 | 1009.8 |
| 20260509164003 | 76 | 252 | 4.0 | 9.0 | 0.00 | 0.12 | 0.02 | 44 | 1009.8 |
| 20260509163506 | 76 | 215 | 4.0 | 10.0 | 0.00 | 0.12 | 0.02 | 45 | 1009.8 |
| 20260509163025 | 76 | 240 | 4.0 | 10.0 | 0.00 | 0.12 | 0.02 | 46 | 1009.9 |
| 20260509162508 | 75 | 251 | 4.0 | 9.0 | 0.00 | 0.12 | 0.02 | 47 | 1009.9 |
| 20260509162010 | 75 | 221 | 4.0 | 9.0 | 0.00 | 0.12 | 0.02 | 50 | 1009.8 |
| 20260509161503 | 75 | 254 | 3.0 | 9.0 | 0.00 | 0.12 | 0.02 | 50 | 1009.9 |
| 20260509161003 | 74 | 254 | 3.0 | 13.0 | 0.00 | 0.12 | 0.02 | 51 | 1009.9 |
| 20260509160506 | 74 | 281 | 3.0 | 13.0 | 0.00 | 0.12 | 0.02 | 52 | 1010.0 |
| 20260509160010 | 73 | 220 | 4.0 | 9.0 | 0.00 | 0.12 | 0.02 | 55 | 1009.9 |
| 20260509155502 | 73 | 293 | 5.0 | 9.0 | 0.00 | 0.12 | 0.02 | 59 | 1009.9 |
| 20260509155002 | 72 | 240 | 4.0 | 8.0 | 0.00 | 0.12 | 0.02 | 62 | 1009.9 |